Wind_Speed
2 3 5 5 3 1 4 8 13 22 15 6 10 10 9 6 7 10 21 18 22 21 21 20 17 16 15 15 17 16 18 19 21 20 21 21 22 21 19 19 19 18 16 15 14 14 14 14 15
0 10 4 1 1 4 4 7 20 21 22 19 22 23 23 18 13 16 20 25 23 21 18 18 16 16 15 17 18 17 18 18 19 19 21 21 21 20 19 19 17 18 16 16 14 11 11 12 16
4 5 3 3 3 8 8 15 19 19 17 22 19 16 10 12 20 22 32 29 27 23 19 17 17 17 18 19 19 18 18 18 18 20 19 20 20 21 17 18 16 16 14 14 12 11 11 14 17
2 4 3 3 16 12 13 6 23 20 24 20 18 15 19 29 19 27 36 31 28 20 18 15 17 20 21 22 21 19 18 18 17 19 18 18 18 18 17 16 16 15 12 12 11 11 13 18 20
2 0 3 3 12 14 11 8 24 21 21 21 24 22 19 26 37 38 35 31 28 23 18 19 23 24 24 25 22 19 18 18 17 17 17 16 17 17 16 16 16 15 13 12 12 12 17 21 19
4 2 3 8 15 13 7 13 25 24 21 25 25 22 12 38 35 34 35 30 26 25 24 24 25 24 25 22 21 19 17 16 16 14 15 14 15 15 16 16 16 15 13 13 13 15 20 19 16
4 3 4 12 9 8 9 10 15 24 22 16 23 25 11 17 36 37 34 34 31 28 25 24 25 23 23 23 21 18 16 15 14 14 13 13 14 14 15 15 14 13 12 12 13 17 17 16 15
4 4 7 5 7 9 15 18 17 22 17 21 25 13 17 22 33 31 37 33 32 27 26 25 23 22 22 24 21 18 15 14 13 14 13 13 13 15 13 12 12 10 9 10 12 12 13 16 15
6 3 3 5 7 15 15 16 12 18 25 22 11 19 21 34 34 30 27 31 28 29 28 24 22 20 20 25 20 14 14 14 14 16 16 16 14 13 13 11 9 7 6 6 8 8 7 9 10
3 1 4 5 7 15 17 16 12 11 20 21 20 20 29 35 33 28 22 26 28 29 30 29 25 22 22 21 20 13 15 16 13 11 11 8 7 10 11 9 5 3 2 3 3 4 4 5 7
7 5 4 7 10 11 16 13 16 18 16 21 25 21 21 30 28 25 26 32 33 35 29 32 29 22 22 23 20 16 17 14 10 10 8 11 15 12 10 5 3 6 8 10 4 4 5 4 5
4 15 9 9 11 7 5 15 15 11 20 23 18 17 16 12 18 22 23 27 31 30 31 30 32 27 25 20 20 17 16 15 15 11 8 14 14 8 5 3 5 7 6 9 7 6 4 12 5
6 3 11 11 10 9 10 13 16 16 20 21 18 14 14 13 17 26 26 30 29 34 33 30 33 28 25 20 17 19 19 17 18 12 12 10 7 5 7 8 3 7 8 6 2 6 7 4 6
9 14 7 11 9 6 7 7 10 15 19 19 16 12 10 11 16 20 25 24 25 35 34 33 29 27 21 17 15 18 20 21 19 14 14 3 9 7 11 7 4 3 2 1 3 1 4 3 7
10 5 4 6 2 2 5 5 6 16 15 17 16 14 13 10 21 15 27 23 32 36 39 36 31 25 21 16 18 18 14 24 20 13 15 7 9 10 8 5 4 3 3 1 5 9 13 5 11
9 2 2 5 7 3 1 4 10 7 16 13 16 15 13 10 17 21 22 31 33 35 40 34 31 25 23 19 19 16 17 16 16 18 13 12 12 14 10 8 6 6 5 9 13 9 5 3 4
2 3 5 6 8 8 4 4 13 13 17 15 14 12 12 11 13 25 24 25 31 40 38 33 30 27 20 19 18 15 14 14 17 13 10 18 13 16 14 6 8 7 7 10 3 4 3 7 9
6 6 11 7 10 9 10 7 13 17 19 17 15 14 12 11 10 24 28 26 32 37 35 31 32 29 24 21 18 16 11 16 13 19 15 14 17 18 14 6 11 9 7 6 3 3 2 6 9
4 6 10 7 8 9 11 12 19 17 16 18 16 15 13 14 13 26 28 27 30 34 34 27 33 31 27 25 22 17 14 16 16 13 21 19 15 19 14 10 8 8 5 2 3 6 7 8 13
8 8 6 5 8 6 6 5 19 20 16 20 19 17 15 12 15 20 26 28 29 35 32 30 26 34 32 29 26 20 18 16 20 16 19 24 19 14 18 15 11 10 9 10 7 6 6 7 8
7 5 7 4 6 7 4 6 10 16 11 13 17 18 16 15 16 15 19 26 29 33 34 30 28 32 30 28 27 23 20 21 22 18 25 25 21 19 17 18 15 8 9 14 12 12 9 6 8
5 8 10 9 5 3 3 5 6 16 16 16 14 14 15 14 17 18 20 24 27 32 36 34 31 29 30 27 26 28 25 22 25 19 30 27 22 22 20 18 18 16 10 12 12 11 11 8 5
2 9 7 6 7 7 13 2 7 21 7 6 9 15 7 12 18 20 3 23 26 33 35 37 34 31 32 29 27 28 26 24 24 19 25 30 26 23 26 22 22 18 18 11 10 14 13 16 9
7 5 8 5 2 3 12 6 7 14 9 6 12 9 10 8 13 12 23 13 7 28 32 37 39 37 34 31 33 25 27 25 24 25 25 27 32 29 26 26 25 21 20 21 17 12 13 14 13
5 3 3 3 0 6 7 2 2 16 19 17 14 15 11 14 12 12 13 8 9 14 22 31 38 36 39 37 33 36 28 28 26 23 29 23 32 34 32 29 28 29 24 24 22 20 15 15 17
5 2 4 3 3 6 8 6 1 18 17 18 17 15 13 16 19 13 8 19 20 12 16 11 23 33 38 40 39 39 37 29 31 33 26 21 32 34 32 33 32 31 31 28 26 23 21 20 18
7 4 6 1 6 4 2 6 7 9 14 17 17 15 12 11 11 13 19 21 25 26 14 5 12 33 32 41 39 40 40 38 34 30 29 29 27 34 31 32 33 35 33 31 29 28 26 21 22
3 3 5 5 4 4 4 4 7 7 12 15 14 12 10 10 10 9 14 21 17 16 17 19 16 12 17 25 30 33 43 43 43 36 29 29 29 25 26 34 36 36 37 35 33 32 29 28 25
1 3 3 2 4 2 3 4 8 10 13 13 11 10 10 9 9 8 12 20 20 21 21 19 19 19 24 24 43 40 37 42 43 42 41 33 35 27 26 26 29 40 40 39 38 32 30 29 31
6 3 3 4 7 2 3 2 7 11 11 10 9 8 7 8 8 8 15 19 20 22 23 21 22 26 31 31 20 37 38 37 39 40 41 42 37 36 30 29 25 30 39 40 38 36 36 32 29
Wind_Direction
352 312 350 269 29 286 74 71 85 88 73 78 100 89 90 54 118 127 145 139 132 123 123 133 135 135 131 120 117 104 103 96 99 98 103 102 100 98 96 95 95 93 92 92 93 92 91 104 106
313 303 269 301 176 85 69 79 92 107 108 92 92 90 78 80 86 119 129 148 126 119 127 135 139 139 138 127 122 114 106 100 103 101 103 102 100 101 99 98 95 93 94 92 94 97 100 106 116
6 292 335 207 228 105 108 104 108 91 75 110 103 85 91 107 121 139 144 142 129 133 132 130 137 139 142 131 127 119 109 105 105 105 105 102 100 101 99 95 92 91 93 95 94 95 104 117 125
153 318 267 274 80 65 97 94 104 106 109 107 105 76 101 130 123 137 138 133 132 129 121 130 136 141 140 137 130 124 113 111 109 109 110 106 105 102 98 97 96 91 97 97 95 94 104 119 124
72 50 333 246 106 112 120 144 110 96 93 97 100 110 107 114 129 130 129 131 130 124 120 126 131 136 140 135 131 122 115 117 112 112 114 111 108 108 105 102 95 94 97 95 93 95 109 122 123
32 34 319 74 81 34 108 126 111 106 104 101 100 110 114 122 129 138 133 132 128 124 123 125 129 134 138 135 135 123 120 120 118 122 117 114 113 115 110 103 101 98 99 95 94 100 116 125 120
47 0 266 86 71 89 106 111 118 123 125 116 124 120 135 131 143 141 136 132 135 130 131 129 131 133 139 139 129 131 129 122 126 122 117 118 121 122 113 107 104 107 103 95 98 109 119 121 120
26 291 301 100 108 88 78 61 93 119 124 131 131 137 151 140 146 133 131 135 136 135 137 137 138 140 142 146 131 131 130 126 125 120 119 115 123 121 117 112 111 116 113 107 103 110 128 129 127
181 232 261 122 133 105 92 97 93 124 134 150 120 137 145 135 131 128 137 136 140 141 144 148 147 147 144 156 154 127 133 127 120 124 119 114 111 123 127 121 112 114 119 132 128 119 115 133 133
208 293 261 132 86 124 127 128 126 111 106 117 127 140 148 133 134 144 160 149 149 150 158 153 153 151 150 154 163 150 141 132 130 130 149 142 149 142 137 123 100 15 337 278 245 189 157 173 150
174 218 84 66 107 92 125 129 131 123 126 136 145 152 153 140 145 159 150 151 159 159 159 157 154 155 150 161 164 157 149 142 137 133 142 136 162 154 140 119 11 341 17 19 42 55 184 144 196
172 235 72 58 31 68 91 100 77 131 136 133 136 144 146 153 157 150 159 161 161 160 163 164 166 160 167 164 166 170 165 157 160 140 134 151 156 164 205 227 316 329 349 78 63 58 72 108 115
185 176 91 70 60 48 39 93 98 102 126 128 141 146 156 158 164 161 169 160 159 150 160 169 168 171 175 175 178 204 180 169 166 147 161 157 153 174 206 230 300 62 72 83 79 66 84 110 101
74 71 62 90 71 58 54 11 103 115 127 135 149 150 179 165 168 161 151 158 146 154 162 170 171 160 170 175 164 168 183 186 172 159 165 149 181 161 165 171 128 59 68 112 159 242 305 305 155
91 111 120 83 100 121 83 12 110 130 133 145 157 168 189 172 166 162 162 159 145 153 159 167 167 169 170 172 162 149 152 176 167 159 172 164 176 168 180 181 177 195 129 215 305 322 327 300 192
80 355 300 153 126 304 158 210 236 181 143 161 170 179 185 173 158 163 151 157 143 151 153 156 161 169 176 175 177 169 174 178 172 170 179 191 177 180 193 208 203 173 232 285 301 346 44 87 57
271 214 213 149 226 151 127 188 228 188 156 172 175 180 179 175 160 166 167 157 159 162 162 163 167 174 180 184 189 182 185 189 183 191 202 189 187 197 203 238 216 212 234 313 339 22 67 6 2
180 212 191 159 181 176 185 187 195 176 168 175 178 175 177 174 166 166 165 166 168 166 166 173 177 179 181 180 188 197 213 199 180 197 204 189 193 199 216 234 195 216 241 324 236 325 239 330 327
336 293 139 175 180 183 196 203 174 183 179 174 180 177 179 173 164 165 168 174 170 164 168 169 175 179 176 180 187 203 206 209 202 202 207 196 188 201 215 219 209 234 201 218 193 269 299 311 324
332 320 151 147 168 174 198 214 176 185 194 181 179 176 178 171 160 164 167 176 168 169 168 176 175 180 180 184 190 198 200 214 210 219 210 194 189 204 221 222 214 236 222 223 247 238 278 310 336
319 4 6 135 204 224 193 269 170 185 183 182 184 175 176 172 159 165 165 175 172 173 179 176 183 184 185 188 191 201 207 217 215 233 198 190 194 205 219 232 225 239 258 228 242 236 245 275 307
44 10 12 1 36 284 51 270 197 174 187 204 176 168 178 168 160 165 168 177 173 175 182 186 188 189 192 190 195 206 218 216 209 224 197 191 200 205 214 226 230 239 225 229 231 236 243 241 261
90 25 349 328 330 353 299 30 284 161 177 198 46 78 24 93 57 24 314 183 176 176 180 188 190 195 198 199 206 213 222 228 226 225 200 199 208 217 213 220 226 234 233 228 232 227 251 241 263
334 338 309 274 212 300 248 160 291 172 144 106 112 80 66 80 70 346 341 339 219 181 181 186 191 197 204 208 209 217 224 218 228 232 229 214 212 212 215 216 223 227 229 226 225 232 243 231 230
225 332 309 342 334 222 228 11 230 102 118 132 134 136 166 135 121 128 245 190 257 359 205 193 193 196 201 203 209 217 223 224 222 227 232 225 209 210 214 216 218 223 225 229 236 240 240 241 246
315 59 136 304 352 267 343 122 65 118 116 114 123 137 144 150 167 189 192 185 190 216 302 223 213 204 201 203 206 208 220 223 229 233 234 239 214 215 220 218 220 222 227 228 232 241 241 243 244
325 62 255 311 284 34 81 43 46 87 93 88 83 75 67 68 68 87 155 157 178 185 198 40 331 243 220 207 210 210 213 214 222 234 243 242 226 220 225 226 224 222 224 227 230 236 240 241 249
183 286 16 352 10 338 25 141 175 115 88 85 77 66 51 51 58 62 74 70 80 65 77 51 18 7 230 237 227 217 213 217 216 223 228 237 242 236 220 227 228 225 222 225 227 233 237 238 239
318 348 356 158 138 144 33 312 101 104 102 92 85 79 68 59 60 51 58 60 56 47 38 33 20 5 334 327 231 216 218 217 219 219 224 226 231 240 243 240 234 228 224 225 226 228 234 238 244
92 65 75 99 308 348 137 342 77 58 61 80 81 90 85 80 71 65 55 58 42 29 25 25 7 4 354 345 263 224 217 214 216 220 222 224 227 235 240 244 233 233 228 227 229 232 232 231 236
Height
766 760 762 764 786 777 779 773 750 767 766 758 754 765 771 771 787 819 803 809 814 816 818 821 824 825 826 828 830 833 834 835 836 836 837 837 838 839 840 840 841 840 841 841 841 841 841 841 841
766 762 761 766 789 794 785 762 771 767 762 761 765 768 778 794 783 798 807 813 814 816 819 822 824 826 828 830 832 834 836 837 837 838 839 840 841 841 842 842 843 842 843 843 843 843 843 843 843
768 769 771 780 780 785 785 759 761 761 759 761 768 767 779 797 795 799 805 811 815 818 820 822 824 827 829 831 833 836 837 839 840 840 842 842 843 843 845 844 845 845 845 844 844 844 843 844 845
770 767 768 783 776 760 759 751 754 764 759 760 762 783 782 788 792 798 806 812 814 819 820 822 824 827 830 832 835 837 839 841 842 843 844 844 844 845 846 846 846 846 846 845 845 845 844 844 846
765 768 786 778 768 753 747 743 754 764 767 770 770 793 792 791 796 802 808 811 814 819 821 823 825 828 831 834 836 838 840 843 844 845 845 846 847 847 848 848 847 847 847 846 846 846 845 847 848
774 780 796 789 767 754 746 742 752 764 770 776 782 791 796 796 801 805 808 812 815 819 823 825 827 830 832 836 838 840 843 844 846 847 847 848 849 850 850 850 849 849 849 848 848 848 848 849 849
796 799 788 773 772 761 751 736 750 765 774 778 778 794 797 796 801 804 809 812 816 820 824 827 829 832 835 837 840 842 844 845 847 848 849 850 851 851 852 851 850 851 852 852 851 850 850 851 851
798 795 785 772 781 775 750 748 745 758 772 770 774 800 801 796 801 807 810 814 817 821 825 829 832 834 836 839 841 843 845 846 848 849 850 851 852 853 853 851 851 853 854 854 854 853 852 852 853
791 804 791 776 772 766 751 760 751 753 769 771 770 782 786 796 802 808 813 818 821 823 825 830 832 835 838 840 842 844 846 848 849 851 852 853 854 855 854 852 854 855 855 855 855 854 855 854 854
788 799 780 750 748 756 752 753 756 762 772 778 780 782 787 794 798 807 812 817 820 823 826 828 832 835 838 841 843 845 847 849 851 852 853 854 855 856 854 854 855 855 855 855 855 855 855 854 854
791 791 751 748 741 742 750 752 749 764 780 775 785 783 785 793 798 802 807 812 815 820 826 829 831 835 838 841 843 845 847 849 850 852 853 855 855 856 856 855 856 855 854 854 854 854 854 853 853
790 768 749 747 745 747 754 746 758 759 769 769 776 781 785 789 795 799 804 808 815 821 825 829 830 834 837 840 841 844 846 849 851 853 854 855 856 857 856 856 857 857 856 855 854 855 854 853 854
772 755 748 750 754 757 750 757 762 767 767 771 777 782 786 789 792 796 801 806 810 816 823 827 830 834 836 839 842 844 847 849 851 852 854 855 856 857 857 857 858 857 855 855 855 855 855 855 855
754 753 755 756 760 759 768 770 763 770 768 776 781 785 786 787 790 794 799 804 811 815 821 827 830 833 836 839 841 842 846 849 850 852 853 854 855 857 858 858 858 858 856 856 856 856 856 856 855
754 766 762 762 761 766 763 785 782 767 771 779 782 784 785 786 787 791 797 802 805 813 816 824 828 832 834 838 840 843 844 847 850 852 854 854 855 857 858 858 859 859 857 856 856 855 854 855 854
776 778 802 770 766 768 770 804 777 768 773 783 782 782 783 784 786 790 795 800 805 811 816 821 825 829 832 835 839 842 845 847 848 850 853 854 855 857 858 858 860 859 858 856 857 855 854 853 854
788 799 790 783 760 769 775 793 769 764 770 780 780 780 781 783 785 788 793 798 804 809 814 818 822 826 830 834 837 840 842 845 847 849 851 852 854 856 857 858 858 859 859 858 856 856 854 854 853
785 790 780 782 767 764 781 776 765 760 765 772 775 775 779 782 784 787 791 797 803 807 812 816 820 823 827 830 836 839 841 843 845 847 849 850 852 854 856 858 858 858 858 858 857 855 854 854 854
750 759 770 766 754 765 767 767 763 756 761 768 770 772 775 777 779 785 791 796 801 805 810 814 817 821 825 828 832 836 838 841 843 845 846 848 851 853 855 856 856 857 858 858 857 856 855 854 853
753 762 766 759 753 764 760 760 753 752 753 755 760 766 769 773 776 783 789 795 800 804 807 812 815 819 822 826 830 833 837 839 841 843 843 846 848 851 852 854 855 855 856 857 856 856 855 855 853
765 769 770 771 757 753 757 772 761 750 748 750 751 755 760 766 775 781 787 793 799 803 806 809 814 818 821 824 828 832 835 836 838 839 841 843 845 847 850 852 853 854 854 855 854 855 855 855 854
785 757 759 765 780 804 759 816 767 755 755 747 752 758 760 762 768 776 783 790 796 801 806 810 813 817 820 824 826 828 830 832 833 835 836 839 842 843 845 848 850 852 853 853 853 854 854 854 854
771 759 767 768 784 788 781 800 768 746 770 757 762 768 777 775 784 796 795 790 792 799 803 808 812 816 819 821 823 826 828 830 831 832 833 834 837 840 842 844 846 848 849 850 851 852 852 852 852
752 765 772 774 792 828 787 794 788 760 762 772 769 776 775 776 778 790 803 803 803 802 802 806 809 811 815 818 820 821 824 826 828 830 831 831 832 834 837 839 841 844 845 846 848 849 849 849 849
763 788 831 830 829 830 773 787 777 753 756 759 765 766 772 778 788 797 799 793 798 810 811 806 806 809 808 810 813 815 818 821 823 825 827 827 828 830 831 833 836 839 841 843 844 845 846 846 846
778 786 831 837 835 814 766 798 786 746 743 750 759 767 773 784 791 791 791 795 799 804 812 814 815 807 805 804 804 806 812 815 818 820 822 823 823 824 826 829 830 833 836 839 840 841 841 842 842
784 808 779 805 791 813 791 779 775 763 763 761 766 768 774 776 778 783 789 796 803 809 815 811 810 815 809 799 799 800 802 806 811 814 816 818 820 819 820 823 825 827 830 832 835 836 837 838 839
774 773 818 820 835 830 814 799 806 786 783 776 778 782 781 780 782 785 789 794 802 804 805 809 810 804 807 804 802 798 793 798 799 806 808 812 814 816 815 816 819 821 823 825 828 830 831 833 834
790 800 795 806 814 838 847 827 776 785 781 787 786 784 785 786 788 789 790 793 799 802 804 804 805 803 799 793 787 784 790 789 794 794 799 802 807 810 810 811 813 815 817 819 821 823 825 827 829
771 785 795 837 832 824 829 831 783 785 784 784 787 787 786 787 788 789 790 793 795 795 796 798 798 795 792 784 779 781 781 784 786 787 790 794 796 801 804 805 806 807 810 812 814 816 818 820 822